Tracking 35331 objects as of 16-Sep-2026
HD Live streaming from Space Station
objects crossing your sky now

STARLINK-37937

Track STARLINK-37937 now!
10-day predictions
STARLINK-37937 is classified as:


NORAD ID: 69944
Int'l Code: 2026-157B
Launch date: July 9, 2026
Source: United States (US)
Launch site: AIR FORCE EASTERN TEST RANGE (AFETR)
Your satellite tracking list
Your tracking list is empty




NASA's NSSDC Master Catalog

Two Line Element Set (TLE):
1 69944U 26157B   26259.25844944  .00012557  00000-0  38217-3 0  9991
2 69944  53.1618 353.4138 0000643 109.8056 250.3016 15.34397049 10729
Source of the keplerian elements: AFSPC